Regional Weather Roundup
Issued by NWS

Home | Current Version | Previous Version | Graphics & Text | Print | Product List | Glossary On
Versions: 1 2 3 4 5 6 7 8 9 10 11 12 13 14 15 16 17 18 19 20 21 22 23 24 25 26 27 28 29 30 31 32 33 34 35 36 37 38 39 40 41 42 43 44 45 46 47 48 49 50
000
ASUS43 KBIS 180910
RWRND

NORTH DAKOTA REGIONAL WEATHER ROUNDUP
NATIONAL WEATHER SERVICE BISMARCK ND
300 AM CST SUN FEB 18 2018

NOTE: "FAIR" INDICATES FEW OR NO CLOUDS BELOW 12,000 FEET WITH NO
SIGNIFICANT WEATHER AND/OR OBSTRUCTIONS TO VISIBILITY.


NDZ001>003-009>011-017-181000-
NORTHWEST NORTH DAKOTA

CITY           SKY/WX    TMP DP  RH WIND       PRES   REMARKS
WILLISTON      LGT SNOW  11   7  84 NE10      29.73F FOG     WCI  -3
MINOT          LGT SNOW   9   3  77 NE13      29.79F WCI  -7
MINOT AFB      CLOUDY     8   2  75 E9        29.79F WCI  -6
$$

NDZ018>021-031>035-040>046-181000-
SOUTHWEST NORTH DAKOTA

CITY           SKY/WX    TMP DP  RH WIND       PRES   REMARKS
BISMARCK       CLOUDY    16  11  80 E14       29.71F WCI   2
DICKINSON      FLURRIES  14  10  84 E20       29.56F WCI  -3
GARRISON         N/A      9   5  84 E12G20    29.73F WCI  -6
HETTINGER ARPT CLOUDY    14  10  84 E12       29.55F WCI   0
$$

NDZ004>008-012>016-024-026-027-054-181000-
NORTHEAST NORTH DAKOTA

CITY           SKY/WX    TMP DP  RH WIND       PRES   REMARKS
GRAND FORKS    CLOUDY    12   4  70 E6        29.96F WCI   3
GRND FRKS AFB  FAIR      10   6  81 E5        29.94F WCI   2
DEVILS LAKE    CLOUDY     5   0  79 NE7       29.87F WCI  -7
$$

NDZ022-023-025-028>030-036>039-047>053-181000-
SOUTHEAST NORTH DAKOTA

CITY           SKY/WX    TMP DP  RH WIND       PRES   REMARKS
FARGO          CLOUDY    16   9  74 E6        29.95F WCI   7
JAMESTOWN      CLOUDY    14   8  77 E15       29.81F WCI  -1
$$





USA.gov is the U.S. government's official web portal to all federal, state and local government web resources and services.